Peoria, IL

11:29 AM CDT on September 25, 2016 (GMT -0500)
Greater Peoria Regional

Weather History for KPIA - July, 2013

Change the Weather History Date:

Thursday, July 11, 2013

  Actual Average Record
Temperature  
Mean Temperature 73 °F 76 °F  
Max Temperature 82 °F 86 °F 108 °F (1936)
Min Temperature 63 °F 66 °F 50 °F (1898)
Degree Days  
Heating Degree Days 0 0  
Month to date heating degree days 0 0  
Since 1 June heating degree days 18 18  
Since 1 July heating degree days 0 0  
Cooling Degree Days 8 11  
Month to date cooling degree days 109 119  
Year to date cooling degree days 439 422  
Since 1 June cooling degree days 332 341  
Growing Degree Days 22 (Base 50)    
Moisture  
Dew Point 57 °F    
Average Humidity 67    
Maximum Humidity 93    
Minimum Humidity 40    
Precipitation  
Precipitation 0.00 in 0.13 in 2.15 in (1897)
Month to date precipitation 0.39 1.39  
Year to date precipitation 30.10 19.25  
Snow  
Snow 0.00 in 0.00 in 0.00 in ()
Month to date snowfall 0.0 0.0  
Since 1 June snowfall 0.0 0.0  
Since 1 July snowfall 0.0 0.0  
Snow Depth 0.00 in    
Sea Level Pressure  
Sea Level Pressure 30.07 in    
Wind  
Wind Speed 5 mph (NE)    
Max Wind Speed 14 mph    
Max Gust Speed 18 mph    
Visibility 10 miles    
Events      
T = Trace of Precipitation, MM = Missing Value Source: NWS Daily Summary

Daily Weather History Graph

Daily Weather History Graph

Search for Another Location

Airport or City:

Trip Planner

Search our weather history database for the weather conditions in past years. The results will help you decide how hot, cold, wet, or windy it might be!

Date:

Astronomy

Jul. 11, 2013 Rise Set
Actual Time 5:37 AM CDT 8:30 PM CDT
Civil Twilight 5:05 AM CDT 9:03 PM CDT
Nautical Twilight 4:23 AM CDT 9:44 PM CDT
Astronomical Twilight 3:36 AM CDT 10:31 PM CDT
Moon 8:57 AM CDT (7/11) 10:09 PM CDT (7/11)
Length of Visible Light 15h 57m
Length of Day
14h 52m
Waxing Crescent, 11% of the Moon is Illuminated
Jul 11
Waxing Crescent
Jul 15
First Quarter
Jul 22
Full
Jul 29
Last Quarter
Aug 6
New

Hourly Weather History & Observations

Time (CDT) Temp. Heat Index Dew Point Humidity Pressure Visibility Wind Dir Wind Speed Gust Speed Precip Events Conditions
12:54 AM 68.0 °F - 57.9 °F 70% 30.02 in 10.0 mi Calm Calm - N/A   Clear
1:54 AM 66.0 °F - 59.0 °F 78% 30.03 in 10.0 mi Calm Calm - N/A   Clear
2:54 AM 64.9 °F - 60.1 °F 84% 30.04 in 10.0 mi Calm Calm - N/A   Mostly Cloudy
3:54 AM 64.0 °F - 60.1 °F 87% 30.04 in 10.0 mi Calm Calm - N/A   Scattered Clouds
4:54 AM 64.0 °F - 60.1 °F 87% 30.05 in 10.0 mi Calm Calm - N/A   Scattered Clouds
5:54 AM 63.0 °F - 60.1 °F 90% 30.06 in 10.0 mi North 3.5 mph - N/A   Scattered Clouds
6:54 AM 66.0 °F - 61.0 °F 84% 30.07 in 10.0 mi Calm Calm - N/A   Partly Cloudy
7:54 AM 71.1 °F - 62.1 °F 73% 30.08 in 10.0 mi ENE 5.8 mph - N/A   Clear
8:07 AM 71.1 °F - 62.1 °F 73% 30.09 in 10.0 mi NE 5.8 mph - N/A   Partly Cloudy
8:54 AM 73.9 °F - 61.0 °F 64% 30.09 in 10.0 mi NNE 3.5 mph - N/A   Clear
9:54 AM 77.0 °F - 61.0 °F 58% 30.08 in 10.0 mi NE 5.8 mph - N/A   Clear
10:54 AM 78.1 °F - 55.9 °F 46% 30.09 in 10.0 mi NNE 8.1 mph - N/A   Mostly Cloudy
11:54 AM 79.0 °F - 55.9 °F 45% 30.09 in 10.0 mi Variable 4.6 mph - N/A   Partly Cloudy
12:54 PM 81.0 °F 80.7 °F 55.0 °F 41% 30.09 in 10.0 mi ENE 10.4 mph 17.3 mph N/A   Clear
1:54 PM 82.0 °F 81.6 °F 55.9 °F 41% 30.09 in 10.0 mi NE 10.4 mph - N/A   Clear
2:54 PM 82.0 °F 81.4 °F 55.0 °F 39% 30.08 in 10.0 mi North 5.8 mph - N/A   Clear
3:54 PM 82.0 °F 81.4 °F 55.0 °F 39% 30.09 in 10.0 mi North 9.2 mph - N/A   Clear
4:54 PM 82.0 °F 81.4 °F 55.0 °F 39% 30.08 in 10.0 mi NE 10.4 mph - N/A   Clear
5:54 PM 81.0 °F 80.7 °F 55.0 °F 41% 30.07 in 10.0 mi NE 6.9 mph - N/A   Partly Cloudy
6:54 PM 79.0 °F - 55.0 °F 44% 30.06 in 10.0 mi NE 6.9 mph - N/A   Clear
7:54 PM 75.9 °F - 55.0 °F 48% 30.06 in 10.0 mi NE 4.6 mph - N/A   Clear
8:54 PM 73.0 °F - 54.0 °F 51% 30.06 in 10.0 mi East 4.6 mph - N/A   Clear
9:54 PM 71.1 °F - 54.0 °F 55% 30.07 in 10.0 mi East 4.6 mph - N/A   Clear
10:54 PM 69.1 °F - 53.1 °F 57% 30.07 in 10.0 mi East 6.9 mph - N/A   Clear
11:54 PM 64.9 °F - 54.0 °F 68% 30.09 in 10.0 mi Calm Calm - N/A   Clear